DAL1292 KSFO-KLAX

Flight info

Callsign DAL1292
Flight time 1h 1m
Altitude 37000
Route WESLA5 SUSEY EBAYE BURGL IRNMN2
Aircraft A320/M-SDE3FGHIRWY/LB1

Departure

Time 2026-05-05 03:27
Airport San Francisco International Airport (KSFO)

Arrival

Time 2026-05-05 04:28
Airport Los Angeles International Airport (KLAX)
Time Latitude Longitude Altitude Speed Heading
2026-05-05 02:51 37.61535 -122.38224 22 ft 0 kts 222°
2026-05-05 03:10 37.61535 -122.38223 22 ft 1 kts 222°
2026-05-05 03:10 37.61552 -122.38204 22 ft 4 kts 222°
2026-05-05 03:10 37.61568 -122.38186 24 ft 4 kts 185°
2026-05-05 03:10 37.61583 -122.38198 22 ft 4 kts 121°
2026-05-05 03:11 37.61589 -122.38210 22 ft 4 kts 117°
2026-05-05 03:11 37.61576 -122.38181 24 ft 4 kts 117°
2026-05-05 03:11 37.61564 -122.38150 22 ft 4 kts 117°
2026-05-05 03:11 37.61551 -122.38121 22 ft 3 kts 117°
2026-05-05 03:12 37.61550 -122.38117 22 ft 0 kts 117°
2026-05-05 03:17 37.61534 -122.38085 22 ft 7 kts 133°
2026-05-05 03:17 37.61482 -122.38087 23 ft 11 kts 207°
2026-05-05 03:17 37.61409 -122.38095 22 ft 11 kts 141°
2026-05-05 03:17 37.61362 -122.37985 22 ft 22 kts 116°
2026-05-05 03:18 37.61326 -122.37898 23 ft 7 kts 119°
2026-05-05 03:18 37.61303 -122.37847 24 ft 6 kts 118°
2026-05-05 03:18 37.61286 -122.37806 22 ft 5 kts 118°
2026-05-05 03:18 37.61271 -122.37771 23 ft 7 kts 118°
2026-05-05 03:19 37.61247 -122.37523 22 ft 15 kts 58°
2026-05-05 03:19 37.61326 -122.37451 24 ft 14 kts 28°
2026-05-05 03:19 37.61413 -122.37394 24 ft 14 kts 27°
2026-05-05 03:20 37.61501 -122.37335 23 ft 15 kts 36°
2026-05-05 03:20 37.61555 -122.37235 22 ft 13 kts 74°
2026-05-05 03:20 37.61554 -122.37124 22 ft 13 kts 104°
2026-05-05 03:20 37.61502 -122.36992 23 ft 18 kts 118°
2026-05-05 03:21 37.61430 -122.36874 22 ft 16 kts 133°
2026-05-05 03:21 37.61361 -122.36769 22 ft 15 kts 124°
2026-05-05 03:21 37.61314 -122.36657 22 ft 14 kts 117°
2026-05-05 03:21 37.61270 -122.36551 23 ft 16 kts 118°
2026-05-05 03:22 37.61216 -122.36423 22 ft 16 kts 118°
2026-05-05 03:22 37.61165 -122.36304 23 ft 15 kts 118°
2026-05-05 03:22 37.61119 -122.36194 22 ft 14 kts 118°
2026-05-05 03:22 37.61080 -122.36102 22 ft 9 kts 118°
2026-05-05 03:23 37.61053 -122.36035 22 ft 8 kts 110°
2026-05-05 03:23 37.61051 -122.35968 22 ft 7 kts 74°
2026-05-05 03:23 37.61072 -122.35926 23 ft 5 kts 47°
2026-05-05 03:23 37.61096 -122.35906 23 ft 0 kts 27°
2026-05-05 03:25 37.61130 -122.35885 23 ft 13 kts 27°
2026-05-05 03:26 37.61178 -122.35864 22 ft 5 kts 343°
2026-05-05 03:26 37.61198 -122.35900 22 ft 7 kts 297°
2026-05-05 03:26 37.61271 -122.36079 22 ft 54 kts 297°
2026-05-05 03:26 37.61557 -122.36757 24 ft 119 kts 298°
2026-05-05 03:27 37.62030 -122.37874 111 ft 161 kts 298°
2026-05-05 03:27 37.62561 -122.39136 795 ft 165 kts 297°
2026-05-05 03:27 37.63095 -122.40428 1586 ft 166 kts 297°
2026-05-05 03:27 37.63644 -122.41746 2142 ft 183 kts 297°
2026-05-05 03:28 37.64281 -122.43264 2498 ft 209 kts 297°
2026-05-05 03:28 37.65008 -122.44966 3128 ft 225 kts 297°
2026-05-05 03:28 37.65781 -122.46719 3967 ft 232 kts 297°
2026-05-05 03:28 37.66580 -122.48528 4788 ft 240 kts 294°
2026-05-05 03:29 37.67080 -122.50594 5394 ft 253 kts 270°
2026-05-05 03:29 37.66701 -122.52784 6030 ft 265 kts 238°
2026-05-05 03:29 37.65362 -122.54389 6774 ft 273 kts 205°
2026-05-05 03:29 37.63484 -122.54810 7500 ft 281 kts 170°
2026-05-05 03:30 37.61687 -122.53879 8307 ft 286 kts 147°
2026-05-05 03:30 37.59986 -122.52537 9189 ft 290 kts 146°
2026-05-05 03:30 37.58261 -122.51181 10092 ft 293 kts 146°
2026-05-05 03:30 37.56447 -122.49816 10467 ft 317 kts 152°
2026-05-05 03:31 37.54322 -122.48754 10877 ft 336 kts 161°
2026-05-05 03:31 37.52065 -122.47992 11582 ft 343 kts 164°
2026-05-05 03:31 37.49780 -122.47074 12346 ft 346 kts 155°
2026-05-05 03:31 37.47690 -122.45565 13116 ft 347 kts 140°
2026-05-05 03:32 37.45954 -122.43461 13894 ft 349 kts 130°
2026-05-05 03:32 37.44309 -122.41207 14605 ft 351 kts 129°
2026-05-05 03:32 37.42656 -122.38917 15332 ft 354 kts 129°
2026-05-05 03:32 37.40996 -122.36617 16032 ft 357 kts 129°
2026-05-05 03:33 37.39314 -122.34303 16723 ft 360 kts 129°
2026-05-05 03:33 37.37616 -122.31984 17438 ft 361 kts 129°
2026-05-05 03:33 37.35895 -122.29648 18162 ft 364 kts 129°
2026-05-05 03:33 37.34168 -122.27304 18810 ft 366 kts 129°
2026-05-05 03:34 37.32433 -122.24953 19419 ft 368 kts 128°
2026-05-05 03:34 37.30683 -122.22589 20030 ft 371 kts 128°
2026-05-05 03:34 37.28917 -122.20202 20653 ft 374 kts 128°
2026-05-05 03:34 37.27141 -122.17802 21252 ft 377 kts 128°
2026-05-05 03:35 37.25353 -122.15386 21851 ft 380 kts 128°
2026-05-05 03:35 37.23552 -122.12951 22454 ft 382 kts 127°
2026-05-05 03:35 37.21734 -122.10498 23029 ft 385 kts 127°
2026-05-05 03:35 37.19904 -122.08031 23563 ft 388 kts 127°
2026-05-05 03:36 37.18081 -122.05572 24004 ft 391 kts 127°
2026-05-05 03:36 37.16197 -122.03035 24482 ft 393 kts 127°
2026-05-05 03:36 37.14357 -122.00557 24986 ft 395 kts 127°
2026-05-05 03:36 37.12480 -121.98032 25494 ft 395 kts 127°
2026-05-05 03:37 37.10610 -121.95522 25975 ft 396 kts 127°
2026-05-05 03:37 37.08726 -121.92991 26435 ft 397 kts 127°
2026-05-05 03:37 37.06833 -121.90456 26873 ft 399 kts 127°
2026-05-05 03:37 37.04929 -121.87913 27312 ft 400 kts 127°
2026-05-05 03:38 37.03023 -121.85367 27738 ft 402 kts 127°
2026-05-05 03:38 37.01110 -121.82809 28163 ft 404 kts 127°
2026-05-05 03:38 36.99188 -121.80233 28615 ft 405 kts 127°
2026-05-05 03:38 36.97262 -121.77656 29050 ft 406 kts 127°
2026-05-05 03:39 36.95325 -121.75073 29478 ft 406 kts 126°
2026-05-05 03:39 36.93390 -121.72496 29873 ft 408 kts 126°
2026-05-05 03:39 36.91443 -121.69904 30216 ft 409 kts 126°
2026-05-05 03:39 36.89488 -121.67300 30476 ft 412 kts 127°
2026-05-05 03:40 36.87518 -121.64676 30692 ft 415 kts 127°
2026-05-05 03:40 36.85537 -121.62039 30906 ft 419 kts 127°
2026-05-05 03:40 36.83528 -121.59370 31105 ft 423 kts 128°
2026-05-05 03:40 36.81501 -121.56675 31261 ft 428 kts 128°
2026-05-05 03:41 36.79458 -121.53960 31452 ft 431 kts 128°
2026-05-05 03:41 36.77390 -121.51217 31660 ft 434 kts 128°
2026-05-05 03:41 36.75316 -121.48478 31970 ft 434 kts 129°
2026-05-05 03:41 36.73241 -121.45739 32245 ft 435 kts 129°
2026-05-05 03:42 36.71161 -121.42996 32517 ft 436 kts 129°
2026-05-05 03:42 36.69100 -121.40279 32782 ft 438 kts 130°
2026-05-05 03:42 36.66998 -121.37509 32988 ft 441 kts 130°
2026-05-05 03:42 36.64886 -121.34725 33238 ft 443 kts 130°
2026-05-05 03:43 36.62759 -121.31923 33507 ft 445 kts 131°
2026-05-05 03:43 36.60629 -121.29120 33788 ft 446 kts 131°
2026-05-05 03:43 36.58487 -121.26307 34060 ft 447 kts 131°
2026-05-05 03:43 36.56347 -121.23499 34302 ft 448 kts 132°
2026-05-05 03:44 36.54202 -121.20685 34583 ft 448 kts 132°
2026-05-05 03:44 36.52062 -121.17877 34840 ft 448 kts 132°
2026-05-05 03:44 36.49919 -121.15064 35077 ft 448 kts 132°
2026-05-05 03:44 36.47768 -121.12245 35314 ft 449 kts 133°
2026-05-05 03:45 36.45615 -121.09429 35531 ft 449 kts 133°
2026-05-05 03:45 36.43457 -121.06608 35759 ft 450 kts 133°
2026-05-05 03:45 36.41332 -121.03751 35963 ft 450 kts 131°
2026-05-05 03:45 36.39263 -121.00828 36184 ft 451 kts 130°
2026-05-05 03:46 36.37236 -120.97873 36401 ft 451 kts 130°
2026-05-05 03:46 36.35216 -120.94889 36608 ft 451 kts 130°
2026-05-05 03:46 36.33195 -120.91912 36808 ft 451 kts 131°
2026-05-05 03:46 36.31185 -120.88980 36985 ft 452 kts 131°
2026-05-05 03:47 36.27086 -120.83083 37040 ft 450 kts 132°
2026-05-05 03:47 36.22979 -120.77238 37040 ft 449 kts 132°
2026-05-05 03:48 36.18869 -120.71388 37037 ft 450 kts 132°
2026-05-05 03:48 36.14763 -120.65546 37038 ft 450 kts 132°
2026-05-05 03:49 36.10649 -120.59686 37039 ft 450 kts 132°
2026-05-05 03:49 36.06537 -120.53849 37034 ft 451 kts 133°
2026-05-05 03:50 36.02413 -120.48000 37033 ft 451 kts 133°
2026-05-05 03:50 35.98284 -120.42154 37037 ft 451 kts 133°
2026-05-05 03:51 35.94184 -120.36355 37028 ft 451 kts 133°
2026-05-05 03:51 35.90047 -120.30529 37032 ft 451 kts 134°
2026-05-05 03:52 35.85588 -120.25165 37036 ft 446 kts 147°
2026-05-05 03:52 35.80337 -120.21128 37037 ft 445 kts 151°
2026-05-05 03:53 35.75055 -120.17153 37041 ft 445 kts 151°
2026-05-05 03:53 35.69768 -120.13168 37038 ft 446 kts 151°
2026-05-05 03:54 35.64468 -120.09184 37041 ft 445 kts 152°
2026-05-05 03:54 35.59196 -120.05197 37044 ft 444 kts 152°
2026-05-05 03:55 35.53966 -120.01244 37044 ft 444 kts 152°
2026-05-05 03:55 35.48711 -119.97278 37054 ft 443 kts 152°
2026-05-05 03:56 35.44335 -119.93993 37042 ft 443 kts 152°
2026-05-05 03:56 35.39067 -119.90051 37037 ft 443 kts 153°
2026-05-05 03:57 35.33798 -119.86105 37050 ft 444 kts 153°
2026-05-05 03:57 35.28559 -119.82113 37021 ft 446 kts 148°
2026-05-05 03:58 35.23608 -119.77503 37050 ft 446 kts 147°
2026-05-05 03:58 35.21119 -119.75180 36631 ft 456 kts 148°
2026-05-05 03:58 35.18603 -119.72831 36372 ft 454 kts 148°
2026-05-05 03:59 35.16118 -119.70508 36261 ft 456 kts 148°
2026-05-05 03:59 35.13573 -119.68128 35941 ft 458 kts 148°
2026-05-05 03:59 35.11042 -119.65769 35042 ft 462 kts 148°
2026-05-05 03:59 35.08481 -119.63386 34191 ft 463 kts 147°
2026-05-05 04:00 35.05912 -119.61002 33118 ft 466 kts 147°
2026-05-05 04:00 35.03330 -119.58607 32368 ft 462 kts 148°
2026-05-05 04:00 35.00794 -119.56242 31674 ft 457 kts 148°
2026-05-05 04:00 34.98258 -119.53881 30722 ft 459 kts 148°
2026-05-05 04:01 34.95735 -119.51529 30112 ft 453 kts 148°
2026-05-05 04:01 34.93249 -119.49217 29408 ft 447 kts 148°
2026-05-05 04:01 34.90799 -119.46945 28817 ft 438 kts 148°
2026-05-05 04:01 34.88387 -119.44744 28389 ft 428 kts 149°
2026-05-05 04:02 34.86015 -119.42614 27930 ft 420 kts 149°
2026-05-05 04:02 34.83669 -119.40531 27512 ft 415 kts 150°
2026-05-05 04:02 34.81344 -119.38479 27068 ft 411 kts 150°
2026-05-05 04:02 34.79032 -119.36436 26627 ft 409 kts 150°
2026-05-05 04:03 34.76742 -119.34405 26198 ft 406 kts 149°
2026-05-05 04:03 34.74463 -119.32378 25768 ft 404 kts 149°
2026-05-05 04:03 34.72196 -119.30374 25342 ft 402 kts 149°
2026-05-05 04:03 34.69935 -119.28395 24927 ft 399 kts 149°
2026-05-05 04:04 34.67686 -119.26436 24496 ft 397 kts 149°
2026-05-05 04:04 34.65445 -119.24490 24076 ft 395 kts 149°
2026-05-05 04:04 34.63213 -119.22553 23588 ft 393 kts 149°
2026-05-05 04:04 34.60996 -119.20638 23052 ft 390 kts 149°
2026-05-05 04:05 34.58790 -119.18742 22558 ft 387 kts 149°
2026-05-05 04:05 34.56604 -119.16864 22063 ft 384 kts 149°
2026-05-05 04:05 34.54436 -119.14985 21583 ft 381 kts 148°
2026-05-05 04:05 34.52294 -119.13099 21110 ft 379 kts 148°
2026-05-05 04:06 34.50170 -119.11208 20613 ft 377 kts 148°
2026-05-05 04:06 34.48065 -119.09333 20149 ft 375 kts 148°
2026-05-05 04:06 34.45963 -119.07472 19679 ft 373 kts 148°
2026-05-05 04:06 34.43890 -119.05641 19206 ft 371 kts 148°
2026-05-05 04:07 34.41799 -119.03810 18749 ft 369 kts 148°
2026-05-05 04:07 34.39715 -119.02001 18261 ft 367 kts 148°
2026-05-05 04:07 34.37635 -119.00204 17711 ft 366 kts 148°
2026-05-05 04:07 34.35576 -118.98428 17267 ft 363 kts 148°
2026-05-05 04:08 34.33521 -118.96651 16773 ft 361 kts 148°
2026-05-05 04:08 34.31493 -118.94849 16158 ft 363 kts 147°
2026-05-05 04:08 34.29483 -118.93022 15647 ft 361 kts 147°
2026-05-05 04:08 34.27473 -118.91180 15193 ft 358 kts 146°
2026-05-05 04:09 34.25517 -118.89384 14407 ft 351 kts 146°
2026-05-05 04:09 34.23581 -118.87606 13648 ft 348 kts 146°
2026-05-05 04:09 34.21663 -118.85836 13134 ft 336 kts 146°
2026-05-05 04:09 34.19916 -118.84220 12828 ft 317 kts 146°
2026-05-05 04:10 34.18191 -118.82630 12554 ft 309 kts 146°
2026-05-05 04:10 34.16496 -118.81067 12304 ft 305 kts 144°
2026-05-05 04:10 34.14860 -118.79430 12056 ft 304 kts 142°
2026-05-05 04:10 34.13286 -118.77739 11793 ft 302 kts 140°
2026-05-05 04:11 34.11738 -118.76023 11536 ft 302 kts 140°
2026-05-05 04:11 34.10193 -118.74301 11290 ft 301 kts 140°
2026-05-05 04:11 34.08651 -118.72590 11042 ft 300 kts 140°
2026-05-05 04:11 34.07114 -118.70895 10801 ft 299 kts 140°
2026-05-05 04:12 34.05591 -118.69225 10570 ft 292 kts 140°
2026-05-05 04:12 34.04164 -118.67503 10325 ft 289 kts 130°
2026-05-05 04:12 34.03151 -118.65427 10097 ft 288 kts 115°
2026-05-05 04:12 34.02648 -118.63095 9804 ft 287 kts 99°
2026-05-05 04:13 34.02435 -118.60750 9428 ft 285 kts 98°
2026-05-05 04:13 34.02216 -118.58385 9076 ft 283 kts 98°
2026-05-05 04:13 34.01997 -118.56040 8688 ft 281 kts 99°
2026-05-05 04:13 34.01776 -118.53699 8289 ft 280 kts 98°
2026-05-05 04:14 34.01553 -118.51392 8016 ft 273 kts 98°
2026-05-05 04:14 34.01343 -118.49188 7791 ft 256 kts 98°
2026-05-05 04:14 34.01146 -118.47089 7442 ft 245 kts 98°
2026-05-05 04:14 34.01135 -118.45051 6984 ft 244 kts 82°
2026-05-05 04:15 34.01475 -118.43061 6683 ft 242 kts 78°
2026-05-05 04:15 34.01818 -118.41082 6379 ft 240 kts 79°
2026-05-05 04:15 34.02158 -118.39110 6047 ft 239 kts 79°
2026-05-05 04:15 34.02490 -118.37164 5737 ft 237 kts 79°
2026-05-05 04:16 34.02806 -118.35217 5404 ft 235 kts 82°
2026-05-05 04:16 34.03037 -118.33271 5091 ft 233 kts 83°
2026-05-05 04:16 34.03242 -118.31345 4772 ft 231 kts 83°
2026-05-05 04:16 34.03450 -118.29429 4460 ft 230 kts 83°
2026-05-05 04:17 34.03655 -118.27524 4158 ft 228 kts 83°
2026-05-05 04:17 34.03853 -118.25639 3845 ft 226 kts 83°
2026-05-05 04:17 34.04049 -118.23759 3507 ft 225 kts 83°
2026-05-05 04:17 34.04246 -118.21888 3161 ft 225 kts 83°
2026-05-05 04:18 34.04444 -118.20004 3022 ft 223 kts 83°
2026-05-05 04:18 34.04639 -118.18127 2996 ft 227 kts 83°
2026-05-05 04:18 34.04836 -118.16225 3000 ft 229 kts 83°
2026-05-05 04:18 34.05033 -118.14323 2996 ft 228 kts 83°
2026-05-05 04:19 34.05226 -118.12419 2979 ft 229 kts 83°
2026-05-05 04:19 34.05415 -118.10508 2971 ft 230 kts 83°
2026-05-05 04:19 34.05603 -118.08593 2975 ft 230 kts 83°
2026-05-05 04:19 34.05514 -118.06724 2975 ft 227 kts 111°
2026-05-05 04:20 34.04602 -118.05178 2976 ft 225 kts 147°
2026-05-05 04:20 34.03235 -118.04290 2981 ft 223 kts 159°
2026-05-05 04:20 34.01819 -118.03594 2982 ft 223 kts 161°
2026-05-05 04:20 34.00372 -118.02903 2986 ft 224 kts 161°
2026-05-05 04:21 33.98898 -118.02370 2976 ft 219 kts 181°
2026-05-05 04:21 33.97465 -118.02781 2980 ft 212 kts 216°
2026-05-05 04:21 33.96528 -118.04090 2994 ft 208 kts 250°
2026-05-05 04:21 33.96380 -118.05762 3006 ft 209 kts 276°
2026-05-05 04:22 33.96612 -118.07488 2997 ft 207 kts 280°
2026-05-05 04:22 33.96900 -118.09193 2980 ft 209 kts 281°
2026-05-05 04:22 33.97208 -118.10907 2981 ft 209 kts 281°
2026-05-05 04:22 33.97514 -118.12618 2995 ft 208 kts 281°
2026-05-05 04:23 33.97737 -118.14310 2996 ft 198 kts 269°
2026-05-05 04:23 33.97650 -118.15961 3005 ft 196 kts 264°
2026-05-05 04:23 33.97495 -118.17588 2994 ft 195 kts 263°
2026-05-05 04:23 33.97334 -118.19194 3001 ft 190 kts 263°
2026-05-05 04:24 33.97180 -118.20735 3000 ft 182 kts 263°
2026-05-05 04:24 33.97030 -118.22228 3003 ft 178 kts 263°
2026-05-05 04:24 33.96882 -118.23699 2866 ft 179 kts 263°
2026-05-05 04:25 33.96582 -118.26669 2402 ft 176 kts 263°
2026-05-05 04:25 33.96437 -118.28111 2170 ft 175 kts 263°
2026-05-05 04:25 33.96290 -118.29563 1935 ft 175 kts 263°
2026-05-05 04:25 33.96145 -118.30991 1695 ft 164 kts 262°
2026-05-05 04:26 33.96014 -118.32290 1504 ft 146 kts 262°
2026-05-05 04:26 33.95897 -118.33447 1308 ft 134 kts 262°
2026-05-05 04:26 33.95784 -118.34551 1104 ft 132 kts 262°
2026-05-05 04:26 33.95668 -118.35633 927 ft 129 kts 264°
2026-05-05 04:27 33.95566 -118.36701 742 ft 127 kts 261°
2026-05-05 04:27 33.95458 -118.37754 561 ft 126 kts 261°
2026-05-05 04:27 33.95351 -118.38802 364 ft 125 kts 261°
2026-05-05 04:27 33.95246 -118.39848 181 ft 125 kts 261°
2026-05-05 04:28 33.95141 -118.40845 105 ft 106 kts 264°
2026-05-05 04:28 33.95075 -118.41508 108 ft 55 kts 263°
2026-05-05 04:28 33.95043 -118.41825 109 ft 32 kts 263°
2026-05-05 04:28 33.95006 -118.42067 107 ft 25 kts 248°
2026-05-05 04:29 33.94950 -118.42182 106 ft 14 kts 230°
2026-05-05 04:29 33.94896 -118.42245 103 ft 7 kts 219°
2026-05-05 04:29 33.94881 -118.42258 103 ft 0 kts 212°
2026-05-05 04:30 33.94871 -118.42265 105 ft 8 kts 208°
2026-05-05 04:30 33.94806 -118.42283 107 ft 11 kts 182°
2026-05-05 04:31 33.94717 -118.42273 101 ft 17 kts 165°
2026-05-05 04:31 33.94688 -118.42173 98 ft 14 kts 81°
2026-05-05 04:31 33.94700 -118.42063 98 ft 13 kts 84°
2026-05-05 04:31 33.94710 -118.41961 98 ft 12 kts 83°
2026-05-05 04:32 33.94722 -118.41842 98 ft 22 kts 84°
2026-05-05 04:32 33.94734 -118.41727 98 ft 18 kts 83°
2026-05-05 04:32 33.94748 -118.41583 99 ft 16 kts 83°
2026-05-05 04:32 33.94763 -118.41452 100 ft 15 kts 79°
2026-05-05 04:33 33.94793 -118.41301 100 ft 13 kts 81°
2026-05-05 04:33 33.94800 -118.41229 100 ft 13 kts 86°
2026-05-05 04:33 33.94813 -118.41085 101 ft 20 kts 82°
2026-05-05 04:33 33.94830 -118.40910 100 ft 22 kts 82°
2026-05-05 04:34 33.94851 -118.40720 100 ft 24 kts 83°
2026-05-05 04:34 33.94864 -118.40597 100 ft 14 kts 83°
2026-05-05 04:34 33.94877 -118.40455 101 ft 18 kts 84°
2026-05-05 04:34 33.94890 -118.40340 101 ft 12 kts 90°
2026-05-05 04:35 33.94828 -118.40302 96 ft 12 kts 209°
2026-05-05 04:35 33.94761 -118.40320 98 ft 7 kts 157°
2026-05-05 04:35 33.94718 -118.40283 97 ft 8 kts 162°
2026-05-05 04:35 33.94699 -118.40308 95 ft 5 kts 259°
2026-05-05 04:36 33.94697 -118.40332 95 ft 0 kts 263°